Temperature
10 10 10 9 8 8 7 7 5 6 6 6 5 4 4 3 3 1 0 -0 -1 -2 -3 -3 -3 -3 -3 -3 -3 -3 -3 -3 -4 -5 -5 -5 -4 -4 -4 -3 -3 -2 -2 -2
8 9 9 8 8 8 7 6 6 5 5 5 5 4 3 2 1 -1 -1 -2 -3 -3 -4 -4 -4 -4 -4 -4 -4 -4 -5 -5 -6 -5 -5 -5 -5 -5 -4 -4 -4 -4 -3 -3
5 8 7 7 6 5 5 5 5 3 3 4 3 3 2 1 -1 -2 -2 -3 -4 -5 -6 -6 -6 -6 -6 -6 -6 -6 -7 -7 -7 -7 -6 -6 -6 -5 -5 -5 -5 -5 -5 -5
4 5 3 5 6 5 4 5 4 4 3 3 3 1 1 0 -2 -3 -4 -5 -6 -6 -7 -7 -7 -7 -7 -7 -7 -8 -8 -8 -8 -8 -7 -7 -6 -6 -6 -6 -6 -6 -6 -6
3 3 4 5 4 4 3 3 4 3 3 2 1 0 1 -1 -4 -4 -5 -6 -7 -8 -8 -8 -8 -8 -8 -8 -8 -8 -9 -9 -9 -8 -8 -8 -8 -7 -7 -7 -7 -7 -7 -7
3 2 2 4 4 5 4 3 4 3 2 1 -0 -1 -2 -3 -5 -5 -6 -7 -8 -8 -8 -8 -9 -9 -9 -9 -9 -9 -9 -9 -9 -9 -9 -9 -9 -9 -8 -8 -8 -8 -8 -8
2 2 3 4 5 5 2 2 3 3 1 -0 -2 -3 -4 -5 -6 -6 -7 -8 -8 -9 -10 -10 -10 -10 -10 -10 -10 -10 -10 -9 -9 -9 -9 -9 -9 -9 -9 -9 -9 -8 -8 -8
3 2 2 5 4 3 2 4 3 1 -0 -2 -3 -4 -5 -6 -7 -7 -8 -9 -9 -10 -10 -11 -11 -11 -11 -11 -10 -10 -10 -10 -10 -10 -10 -10 -10 -9 -9 -9 -9 -9 -9 -8
3 3 5 5 4 4 4 3 1 -0 -2 -3 -4 -5 -6 -7 -8 -8 -9 -10 -10 -10 -11 -11 -11 -11 -11 -11 -11 -11 -10 -10 -10 -10 -10 -10 -10 -10 -10 -10 -10 -10 -10 -9
3 4 5 5 4 4 3 2 0 -1 -3 -5 -6 -7 -7 -8 -9 -9 -10 -10 -11 -11 -11 -11 -11 -11 -12 -11 -11 -11 -11 -11 -11 -11 -11 -11 -11 -11 -11 -11 -11 -11 -11 -11
3 4 5 4 3 3 2 0 -1 -3 -5 -6 -7 -7 -8 -9 -10 -10 -10 -10 -11 -12 -12 -12 -12 -12 -12 -12 -12 -12 -12 -13 -12 -12 -12 -12 -12 -12 -12 -11 -11 -12 -12 -12
3 3 3 2 2 1 0 -1 -3 -4 -6 -7 -8 -8 -9 -10 -10 -10 -10 -11 -11 -12 -12 -12 -12 -13 -13 -13 -13 -13 -13 -13 -13 -13 -13 -13 -13 -13 -13 -12 -12 -12 -12 -12
3 2 2 2 1 0 -1 -2 -3 -5 -7 -8 -8 -9 -9 -9 -10 -10 -10 -11 -12 -12 -13 -13 -13 -13 -13 -14 -14 -14 -14 -14 -14 -14 -14 -14 -14 -14 -14 -13 -13 -13 -13 -13
2 2 1 1 1 -0 -1 -2 -4 -6 -7 -8 -8 -8 -9 -9 -10 -10 -11 -12 -12 -13 -13 -13 -13 -14 -14 -14 -14 -14 -14 -14 -14 -14 -15 -14 -14 -14 -14 -14 -14 -14 -14 -14
2 1 1 0 0 -1 -2 -3 -5 -7 -8 -8 -8 -8 -9 -9 -10 -11 -12 -12 -12 -13 -14 -14 -14 -14 -14 -14 -15 -15 -15 -15 -14 -15 -15 -15 -15 -15 -15 -15 -15 -15 -15 -14
1 1 -0 -1 -1 -2 -3 -5 -6 -7 -8 -8 -8 -9 -9 -10 -11 -12 -12 -12 -13 -13 -14 -14 -14 -14 -14 -14 -15 -15 -15 -15 -15 -15 -15 -15 -15 -15 -15 -15 -15 -15 -15 -15
-0 -1 -1 -2 -3 -4 -5 -6 -7 -8 -8 -8 -9 -9 -10 -11 -11 -11 -12 -12 -13 -14 -14 -14 -14 -14 -14 -14 -15 -15 -15 -15 -15 -15 -15 -15 -15 -15 -15 -15 -15 -15 -15 -15
-1 -1 -2 -3 -4 -5 -6 -7 -7 -8 -8 -9 -9 -10 -10 -11 -11 -12 -12 -12 -13 -13 -14 -14 -14 -14 -14 -14 -14 -15 -15 -15 -15 -15 -15 -15 -15 -15 -15 -15 -15 -15 -15 -15
-1 -2 -3 -3 -4 -5 -6 -7 -8 -8 -9 -9 -10 -10 -11 -11 -12 -12 -12 -13 -14 -14 -14 -14 -14 -14 -14 -14 -14 -14 -14 -15 -15 -15 -15 -15 -15 -15 -15 -15 -15 -15 -15 -15
-1 -2 -3 -4 -5 -6 -7 -8 -8 -9 -9 -10 -10 -11 -11 -11 -12 -12 -13 -13 -14 -14 -14 -14 -14 -14 -14 -14 -14 -14 -14 -14 -15 -15 -15 -15 -15 -15 -15 -15 -15 -15 -15 -15
-2 -3 -4 -5 -6 -7 -8 -8 -8 -9 -10 -10 -10 -11 -11 -12 -12 -13 -13 -13 -13 -13 -14 -14 -14 -14 -14 -14 -14 -14 -14 -15 -15 -15 -15 -15 -15 -15 -15 -15 -15 -15 -15 -15
-3 -3 -4 -5 -6 -7 -8 -8 -9 -9 -10 -10 -11 -11 -11 -12 -12 -12 -13 -13 -13 -13 -13 -13 -13 -14 -14 -14 -14 -14 -14 -15 -15 -15 -15 -15 -15 -15 -15 -15 -15 -15 -15 -15
-4 -4 -5 -6 -7 -8 -8 -9 -9 -10 -10 -11 -11 -11 -12 -12 -12 -12 -12 -12 -12 -12 -13 -12 -13 -14 -14 -14 -13 -13 -14 -15 -15 -15 -15 -16 -16 -16 -15 -15 -15 -15 -15 -15
-4 -5 -6 -7 -8 -8 -8 -9 -9 -10 -10 -11 -11 -12 -12 -12 -12 -12 -12 -12 -12 -12 -12 -12 -13 -13 -13 -12 -12 -12 -13 -14 -14 -15 -15 -15 -15 -15 -15 -15 -15 -15 -15 -15
-4 -5 -6 -7 -8 -8 -9 -9 -10 -10 -10 -11 -11 -11 -12 -12 -11 -11 -11 -11 -11 -11 -11 -11 -12 -12 -12 -11 -11 -12 -12 -13 -14 -14 -14 -14 -14 -14 -15 -15 -15 -15 -15 -15
-5 -6 -7 -7 -8 -8 -9 -9 -10 -10 -11 -11 -11 -11 -11 -11 -11 -11 -11 -11 -11 -11 -11 -11 -11 -11 -11 -11 -10 -11 -11 -11 -12 -12 -13 -13 -13 -13 -13 -13 -14 -14 -15 -15
-6 -6 -7 -8 -8 -9 -9 -10 -10 -10 -11 -11 -11 -11 -10 -10 -10 -10 -10 -10 -10 -10 -10 -10 -10 -10 -10 -10 -10 -10 -10 -11 -11 -12 -12 -12 -12 -12 -12 -12 -12 -13 -15 -15
Wind_Speed
10 11 10 9 11 10 9 8 8 11 14 15 15 16 18 21 23 19 19 20 21 21 20 20 19 19 17 16 14 13 12 12 12 13 12 12 12 12 11 10 9 8 8 7
8 9 6 10 9 6 4 7 10 13 13 12 14 16 19 22 20 18 20 21 21 21 21 20 20 19 17 16 14 13 12 12 12 13 12 12 11 11 11 10 10 10 11 10
5 10 11 4 6 7 5 8 9 11 9 13 16 19 21 21 16 19 21 20 19 19 18 18 18 18 16 15 13 13 12 12 12 12 12 12 11 10 10 10 9 9 9 8
5 7 5 4 8 7 6 8 9 9 12 14 15 17 17 13 17 19 19 17 17 16 16 16 16 16 14 13 12 12 11 11 11 11 12 12 12 11 10 8 7 6 6 7
3 5 9 6 5 5 7 10 7 11 13 16 18 18 9 14 17 16 15 14 14 14 13 13 14 15 13 11 11 11 11 11 10 10 11 11 11 10 8 8 7 6 5 6
1 2 4 4 4 6 8 6 10 12 13 15 18 17 11 16 15 15 14 13 14 13 12 13 14 14 12 11 11 12 12 10 9 9 10 10 10 9 8 7 7 7 6 5
3 4 5 5 5 8 5 7 11 12 13 13 13 13 15 16 14 13 13 13 13 12 11 10 12 12 11 11 13 14 13 11 9 9 9 8 9 7 7 7 7 6 5 5
3 3 4 7 7 5 7 8 10 9 9 12 15 15 15 14 13 13 13 13 13 11 10 9 10 10 10 11 13 14 13 11 10 9 10 10 8 8 7 8 7 7 6 6
2 3 6 7 6 7 7 8 8 8 10 12 13 13 13 13 12 12 12 12 12 11 11 10 9 9 10 11 13 14 13 12 11 10 9 9 8 7 7 7 7 7 7 7
4 5 7 7 6 7 8 7 8 9 10 10 10 11 12 12 10 11 11 11 10 11 11 10 9 9 9 10 12 13 13 12 11 10 9 9 9 8 6 5 5 7 8 8
5 6 5 6 9 10 9 8 8 10 10 9 9 9 10 9 9 9 10 9 9 9 9 10 10 10 9 10 12 11 12 12 11 11 10 8 9 9 9 5 6 6 4 5
2 5 5 8 10 9 7 7 8 10 10 8 7 8 9 8 7 7 8 8 9 9 10 10 11 11 10 11 12 12 12 12 10 10 10 9 8 9 14 15 17 15 12 9
4 7 7 9 8 7 4 5 6 7 7 7 7 7 8 7 6 7 7 8 9 10 9 10 11 11 11 12 13 13 13 13 10 12 11 11 10 10 10 12 16 17 18 16
5 6 7 7 8 6 3 4 4 5 4 5 6 7 7 7 7 7 8 8 9 9 9 10 11 11 11 11 13 13 12 13 12 9 10 9 9 10 10 10 10 9 13 18
6 7 7 10 8 6 5 5 5 4 5 5 6 6 7 7 8 8 7 8 9 9 9 9 11 11 10 11 13 13 11 9 8 6 8 9 9 9 9 9 9 9 9 11
7 8 9 9 9 8 7 6 5 5 5 5 6 6 7 8 8 7 8 9 9 10 9 9 11 12 11 10 11 10 9 18 16 9 7 8 8 8 8 7 7 8 8 7
5 8 8 9 8 6 5 4 4 4 5 5 5 6 7 7 8 9 9 9 8 8 8 8 12 14 11 10 9 8 7 11 18 11 7 7 7 7 6 6 6 7 6 10
5 6 6 5 4 4 4 5 5 4 4 5 6 6 7 8 8 9 9 9 8 8 8 10 12 11 9 10 9 7 7 7 7 8 7 7 8 7 6 7 7 7 5 9
6 6 4 5 6 5 4 4 3 2 3 5 6 6 6 6 7 8 9 9 8 8 10 12 19 12 11 14 15 7 7 9 9 9 9 14 12 7 8 8 8 7 7 8
4 2 4 6 6 4 3 1 1 3 5 5 6 6 7 8 8 8 8 8 6 7 11 14 11 10 11 14 19 8 9 10 11 11 11 10 11 11 10 11 10 9 8 8
2 3 6 7 5 4 3 4 5 5 4 4 5 6 7 8 8 7 7 7 8 11 14 18 12 10 13 17 20 10 11 13 13 13 13 13 13 13 13 12 13 12 10 8
2 5 7 7 6 5 5 5 5 4 4 5 5 6 7 8 8 8 7 6 8 17 14 9 10 17 22 24 12 13 14 15 16 15 15 15 15 15 15 15 14 14 12 9
5 6 7 7 7 6 5 5 4 4 4 4 5 6 7 8 7 7 9 8 9 18 14 10 19 28 32 19 13 15 17 18 18 17 17 17 17 17 16 17 15 14 11 9
7 8 8 8 7 6 4 2 1 1 2 4 4 5 5 6 6 5 7 15 19 21 13 19 28 30 29 15 15 16 17 18 18 18 18 18 17 17 16 16 15 13 12 12
8 7 7 7 6 4 4 3 2 3 4 3 3 4 5 4 5 8 9 11 18 20 14 20 28 29 20 15 16 17 18 18 19 20 19 19 19 18 17 15 14 13 10 9
6 6 6 5 4 5 4 3 2 1 2 3 3 4 5 5 6 7 8 11 14 20 16 13 15 19 15 16 18 19 18 19 20 19 19 20 20 19 17 14 14 9 7 6
7 6 5 5 4 4 3 3 3 2 3 3 4 4 5 6 7 8 10 11 12 13 13 13 14 14 15 17 18 18 18 18 18 18 18 17 17 17 16 14 6 1 4 4
Wind_Direction
298 300 298 302 306 307 300 298 302 321 331 344 0 353 347 341 338 345 348 348 348 348 347 346 347 348 351 355 1 1 0 359 352 346 342 342 343 344 345 347 354 1 7 14
285 280 290 280 283 303 343 346 330 328 326 352 352 347 342 336 342 347 345 347 348 349 349 351 352 353 355 358 358 358 359 358 352 347 345 346 346 350 356 5 12 16 14 12
291 333 322 314 57 44 13 341 332 323 335 353 345 345 337 332 350 347 345 346 349 350 350 352 354 352 352 353 354 356 357 355 351 348 349 349 350 355 1 5 10 15 12 12
300 330 319 44 66 45 352 322 340 359 351 346 345 335 323 349 357 346 346 349 351 351 351 353 351 348 347 350 352 353 352 349 347 347 348 351 355 358 358 358 1 3 1 3
339 316 290 91 46 14 333 309 27 358 346 345 341 325 322 10 355 347 350 352 351 350 351 351 348 342 341 346 347 347 347 345 346 348 347 350 352 351 351 348 351 351 356 3
256 287 286 61 30 337 323 298 17 0 348 344 339 327 330 351 350 352 352 353 351 349 352 351 344 339 341 347 348 347 343 341 345 348 346 347 343 341 345 344 343 345 347 346
243 254 277 62 357 355 336 316 351 352 348 343 330 316 320 337 345 349 350 352 352 349 349 343 334 336 343 348 348 342 339 342 346 346 341 345 338 336 341 341 339 334 325 321
222 252 280 27 7 358 310 330 344 352 350 333 321 321 328 335 341 348 351 352 350 346 341 334 329 336 344 348 343 340 339 343 345 345 346 348 335 337 343 341 343 341 340 343
291 260 350 16 349 332 346 342 351 354 347 335 325 327 332 335 342 350 350 348 346 340 333 328 328 339 346 345 343 342 342 342 341 343 345 341 337 341 351 349 354 353 355 359
302 310 328 333 336 348 1 5 9 3 345 335 331 332 334 335 344 348 345 344 340 333 326 325 329 339 347 345 342 341 340 340 341 342 343 341 343 344 347 347 353 353 347 348
265 287 322 359 353 352 6 15 6 351 339 339 340 335 336 339 347 344 340 336 329 321 320 328 335 340 348 347 342 339 338 339 341 344 338 337 344 341 339 326 327 333 331 332
304 19 347 319 333 357 4 7 6 345 334 343 346 337 342 345 346 339 332 326 321 320 331 337 339 343 349 347 342 341 342 341 342 342 339 341 340 340 342 343 342 344 338 331
339 337 316 306 328 345 352 26 11 344 336 340 347 350 351 345 341 336 327 322 321 326 339 342 342 342 345 345 344 343 341 340 346 345 341 341 343 343 340 342 347 348 347 341
317 320 312 312 303 316 51 55 15 350 2 2 1 2 355 342 336 328 316 315 326 336 344 341 339 339 342 343 344 341 338 341 346 338 336 338 340 340 340 342 342 341 340 337
1 354 311 300 314 7 48 33 9 8 13 14 15 7 350 334 319 307 317 340 343 340 337 338 338 337 342 345 345 340 339 334 334 330 334 337 338 336 337 338 336 332 329 332
332 317 309 324 341 2 18 20 13 13 17 12 8 351 325 307 303 329 356 350 339 332 333 341 336 334 339 339 336 333 330 335 340 336 331 329 327 325 325 321 319 318 318 317
320 308 312 318 329 356 26 46 39 23 19 12 349 325 319 328 347 352 341 331 323 321 331 337 327 326 326 321 316 317 314 323 333 328 309 304 300 296 295 296 299 306 307 318
322 306 317 336 3 28 57 67 53 36 17 348 337 341 351 356 346 332 325 322 321 326 329 324 316 323 318 310 306 302 306 305 305 302 299 296 295 287 287 285 289 297 301 315
324 330 5 55 69 77 83 79 65 37 10 4 1 354 348 349 333 323 324 322 326 328 319 313 327 336 319 315 320 298 298 299 300 296 292 297 301 287 282 282 282 283 289 302
306 345 91 93 85 93 109 128 116 72 43 13 6 0 348 334 324 322 322 318 317 306 310 318 326 322 315 311 317 307 300 298 296 295 293 288 285 282 280 280 278 276 274 277
316 110 120 122 122 120 87 60 60 60 36 20 13 345 324 317 318 319 317 315 312 316 322 326 327 313 312 315 319 309 302 299 298 295 293 290 287 283 280 276 275 274 269 264
133 129 134 137 131 104 75 65 65 53 28 16 3 345 335 330 327 323 312 297 312 322 326 314 310 311 318 321 315 310 307 305 303 300 297 294 291 287 283 280 274 271 267 257
109 122 128 127 121 110 88 66 55 49 28 5 352 340 330 318 316 322 326 318 318 321 325 312 314 320 324 327 319 315 312 310 308 305 301 297 293 288 284 280 275 270 262 252
111 109 110 109 112 116 118 113 68 33 315 297 296 295 301 313 317 313 309 318 325 323 319 316 324 328 332 330 320 317 315 313 310 308 305 302 298 293 288 282 276 269 261 255
116 117 120 128 136 139 140 157 204 258 267 279 311 322 317 312 308 310 311 313 320 323 320 322 327 331 332 322 322 321 319 315 314 315 312 310 305 300 292 284 275 267 260 252
134 134 135 133 129 138 159 179 170 78 9 353 342 330 321 314 309 311 314 315 315 323 325 322 324 328 329 327 326 325 324 322 321 320 316 315 312 310 304 294 274 253 239 229
120 119 120 118 129 139 137 121 102 75 30 356 336 330 325 323 322 323 322 323 323 324 326 329 331 332 332 332 331 330 330 329 328 327 327 329 332 336 339 336 340 146 150 152
Height
1543 1540 1539 1540 1541 1542 1543 1543 1546 1541 1538 1535 1534 1534 1531 1528 1523 1519 1515 1510 1505 1499 1492 1486 1479 1473 1467 1461 1455 1450 1445 1440 1436 1432 1427 1423 1419 1416 1413 1411 1409 1408 1407 1406
1546 1539 1539 1540 1539 1540 1542 1544 1544 1544 1543 1539 1538 1535 1532 1528 1523 1519 1514 1509 1504 1498 1491 1485 1479 1473 1467 1461 1455 1450 1445 1440 1436 1432 1428 1424 1420 1417 1415 1412 1410 1408 1407 1406
1554 1543 1543 1540 1545 1547 1549 1549 1550 1550 1547 1541 1538 1536 1533 1528 1523 1519 1514 1508 1503 1497 1491 1485 1479 1473 1467 1461 1456 1451 1446 1441 1437 1433 1429 1425 1422 1419 1416 1414 1411 1410 1408 1407
1559 1557 1561 1554 1549 1551 1552 1550 1549 1548 1546 1543 1541 1537 1534 1528 1523 1518 1513 1507 1502 1496 1490 1484 1478 1473 1467 1462 1456 1451 1446 1441 1437 1433 1430 1426 1423 1420 1417 1415 1413 1411 1409 1408
1568 1566 1558 1553 1554 1554 1554 1553 1549 1548 1545 1542 1539 1533 1529 1527 1523 1518 1512 1507 1502 1496 1490 1484 1478 1472 1466 1461 1456 1451 1446 1442 1438 1434 1430 1426 1423 1420 1418 1415 1413 1412 1410 1409
1566 1572 1568 1559 1556 1553 1553 1551 1548 1546 1544 1542 1538 1533 1527 1525 1520 1516 1511 1506 1500 1495 1489 1483 1477 1471 1466 1461 1456 1451 1447 1443 1439 1435 1430 1427 1423 1421 1418 1416 1414 1412 1410 1409
1568 1569 1560 1558 1555 1554 1560 1558 1549 1546 1544 1542 1540 1537 1530 1524 1519 1515 1510 1505 1499 1493 1488 1482 1477 1472 1467 1462 1457 1452 1448 1444 1440 1435 1431 1427 1424 1421 1418 1415 1413 1412 1410 1409
1563 1568 1569 1556 1555 1557 1557 1551 1548 1546 1543 1541 1537 1532 1528 1523 1518 1513 1508 1503 1498 1492 1487 1482 1477 1472 1467 1462 1458 1453 1449 1444 1440 1436 1432 1428 1424 1421 1418 1415 1413 1411 1410 1409
1562 1563 1557 1555 1556 1556 1553 1550 1547 1544 1540 1537 1533 1529 1525 1521 1517 1512 1507 1502 1497 1492 1487 1483 1478 1473 1468 1463 1458 1453 1448 1444 1440 1436 1432 1428 1425 1421 1418 1415 1412 1410 1409 1407
1561 1557 1556 1556 1555 1554 1552 1549 1545 1542 1538 1534 1530 1526 1523 1519 1515 1510 1505 1501 1496 1491 1487 1483 1478 1474 1468 1463 1457 1452 1447 1443 1439 1435 1431 1427 1424 1421 1418 1415 1412 1410 1408 1406
1560 1557 1555 1555 1555 1552 1549 1545 1542 1538 1535 1531 1528 1524 1521 1517 1513 1508 1504 1499 1495 1491 1487 1483 1478 1473 1468 1462 1457 1451 1447 1442 1438 1434 1430 1426 1423 1421 1418 1415 1413 1410 1407 1405
1559 1557 1557 1555 1553 1550 1546 1542 1538 1535 1531 1529 1526 1522 1519 1515 1511 1507 1503 1499 1495 1491 1487 1482 1477 1472 1467 1462 1457 1451 1446 1442 1437 1433 1429 1426 1422 1419 1416 1414 1412 1409 1406 1404
1557 1556 1555 1553 1550 1547 1543 1539 1535 1532 1529 1526 1523 1520 1517 1513 1509 1505 1502 1498 1494 1490 1486 1481 1476 1471 1466 1461 1456 1451 1447 1442 1438 1433 1429 1426 1422 1418 1414 1412 1410 1407 1404 1402
1556 1555 1552 1550 1547 1543 1539 1535 1532 1529 1526 1524 1521 1518 1514 1511 1507 1504 1500 1497 1493 1489 1485 1480 1475 1471 1466 1461 1456 1451 1447 1443 1439 1434 1430 1426 1422 1419 1415 1412 1408 1405 1403 1400
1554 1553 1551 1547 1544 1540 1536 1532 1529 1526 1524 1522 1519 1516 1512 1509 1506 1503 1500 1496 1492 1487 1483 1479 1474 1470 1466 1461 1456 1451 1447 1443 1439 1434 1430 1426 1422 1419 1415 1412 1408 1405 1401 1399
1551 1549 1547 1544 1540 1536 1533 1529 1526 1524 1522 1520 1517 1514 1511 1508 1505 1503 1499 1494 1490 1485 1482 1478 1473 1470 1465 1460 1456 1451 1447 1443 1438 1434 1429 1425 1421 1418 1414 1411 1407 1404 1400 1397
1548 1545 1542 1539 1536 1533 1530 1527 1525 1522 1520 1518 1516 1513 1510 1507 1504 1501 1497 1493 1489 1485 1481 1477 1473 1469 1465 1460 1455 1450 1445 1441 1437 1432 1427 1423 1419 1416 1412 1409 1405 1402 1399 1396
1545 1542 1539 1536 1532 1529 1527 1525 1523 1521 1519 1517 1515 1513 1510 1507 1503 1499 1495 1491 1488 1484 1480 1476 1472 1468 1463 1458 1453 1449 1444 1438 1433 1429 1424 1420 1416 1413 1409 1406 1402 1399 1396 1393
1541 1538 1534 1531 1529 1526 1524 1523 1522 1520 1518 1517 1514 1512 1510 1506 1503 1499 1495 1490 1487 1482 1478 1474 1471 1466 1461 1456 1452 1446 1440 1435 1429 1424 1420 1415 1411 1407 1404 1401 1398 1395 1393 1390
1537 1533 1530 1528 1526 1524 1523 1522 1521 1520 1518 1516 1514 1512 1509 1506 1502 1499 1495 1491 1487 1482 1478 1473 1469 1464 1459 1453 1449 1443 1437 1430 1424 1418 1413 1409 1404 1400 1397 1394 1391 1389 1387 1385
1533 1530 1527 1525 1524 1523 1522 1521 1520 1519 1518 1517 1515 1512 1509 1506 1502 1499 1494 1490 1487 1482 1477 1473 1467 1462 1456 1451 1446 1439 1431 1424 1418 1412 1406 1401 1396 1392 1388 1385 1383 1381 1379 1378
1529 1527 1525 1523 1522 1522 1521 1521 1520 1519 1518 1517 1515 1512 1509 1506 1503 1499 1496 1491 1486 1481 1476 1471 1465 1460 1454 1449 1441 1433 1425 1418 1411 1404 1398 1392 1387 1382 1377 1374 1372 1370 1369 1369
1526 1524 1522 1522 1522 1521 1521 1520 1520 1519 1519 1517 1515 1513 1510 1507 1503 1499 1495 1492 1486 1482 1476 1470 1464 1458 1453 1444 1436 1427 1419 1411 1404 1396 1389 1382 1376 1371 1366 1362 1360 1358 1358 1358
1523 1521 1521 1521 1521 1521 1521 1520 1520 1520 1519 1517 1516 1513 1511 1508 1505 1501 1497 1493 1488 1482 1476 1469 1463 1456 1449 1440 1431 1422 1414 1406 1398 1390 1382 1375 1367 1360 1355 1351 1348 1347 1347 1348
1520 1519 1519 1519 1520 1520 1520 1521 1521 1520 1519 1518 1516 1514 1512 1509 1506 1502 1498 1494 1488 1482 1475 1469 1461 1454 1446 1437 1429 1420 1412 1403 1396 1388 1378 1368 1359 1351 1344 1339 1336 1335 1336 1339
1517 1517 1518 1519 1520 1520 1521 1521 1521 1520 1519 1518 1517 1515 1513 1510 1507 1504 1500 1495 1489 1483 1476 1468 1460 1452 1445 1437 1429 1420 1411 1402 1393 1384 1375 1365 1355 1345 1337 1329 1325 1325 1328 1332
1515 1516 1517 1518 1519 1520 1521 1521 1521 1521 1520 1519 1518 1516 1514 1512 1509 1505 1501 1496 1490 1483 1476 1469 1461 1454 1447 1439 1430 1422 1413 1404 1395 1386 1377 1368 1358 1347 1336 1327 1323 1323 1326 1330